sat.trackr.live / text

‹ back to catalog

ZHONGXING-2C

NORAD 41021 · 2015-063A

PAYLOAD ACTIVE UNKNOWN

§ Identity

Operator
Country
PRC
Launch date
2015-11-03
Launch site
XICLF
Launch vehicle
Mass (kg)
RCS (m²)
75.46

Purposes: comms

External: N2YO · Heavens-Above · Gunter

§ Orbital elements

Epoch: 2026-09-19T21:21:25.949952Z

Period
1,436.12 min
Inclination
0.5113°
Eccentricity
0.0009793
Mean motion
1.00269984 rev/d
Perigee alt
35,745.8 km
Apogee alt
35,828.4 km
Semi-major
42,165.2 km
B*
0.0000e+0
RAAN
86.5999°
Arg perigee
115.7114°
Mean anomaly
220.2849°
Rev number
3,992

§ Raw data

ZHONGXING-2C1 41021U 15063A   26262.88988368 -.00000328  00000+0  00000+0 0  99912 41021   0.5113  86.5999 0009793 115.7114 220.2849  1.00269984 39923

JSON: /api/v1/satellites/41021 · /tle

For live sub-satellite position, see the globe view (requires WebGL).

§ Visibility from observer

Set your observer location to see the next 7 days of passes ≥ 10°. The values pass through the URL so the page stays shareable.

No JS? Fill the form by hand. The geolocation button needs JavaScript.